Year,Month,Day,Hour,Minute,Value (Times are PST for temperature in C)
2014,06,26,00,00,14.10
2014,06,26,00,01,14.10
2014,06,26,00,02,14.10
2014,06,26,00,03,14.00
2014,06,26,00,04,14.00
2014,06,26,00,05,14.00
2014,06,26,00,06,14.00
2014,06,26,00,07,13.90
2014,06,26,00,08,13.90
2014,06,26,00,09,13.90
2014,06,26,00,10,13.90
2014,06,26,00,11,13.80
2014,06,26,00,12,13.80
2014,06,26,00,13,13.80
2014,06,26,00,14,13.80
2014,06,26,00,15,13.70
2014,06,26,00,16,13.70
2014,06,26,00,17,13.70
2014,06,26,00,18,13.70
2014,06,26,00,19,13.70
2014,06,26,00,20,13.70
2014,06,26,00,21,13.60
2014,06,26,00,22,13.60
2014,06,26,00,23,13.60
2014,06,26,00,24,13.50
2014,06,26,00,25,13.50
2014,06,26,00,26,13.50
2014,06,26,00,27,13.50
2014,06,26,00,28,13.60
2014,06,26,00,29,13.60
2014,06,26,00,30,13.70
2014,06,26,00,31,13.70
2014,06,26,00,32,13.80
2014,06,26,00,33,13.80
2014,06,26,00,34,13.80
2014,06,26,00,35,13.80
2014,06,26,00,36,13.80
2014,06,26,00,37,13.80
2014,06,26,00,38,13.80
2014,06,26,00,39,13.80
2014,06,26,00,40,13.80
2014,06,26,00,41,13.80
2014,06,26,00,42,13.70
2014,06,26,00,43,13.80
2014,06,26,00,44,13.80
2014,06,26,00,45,13.80
2014,06,26,00,46,13.90
2014,06,26,00,47,13.90
2014,06,26,00,48,13.90
2014,06,26,00,49,13.90
2014,06,26,00,50,13.90
2014,06,26,00,51,13.90
2014,06,26,00,52,13.90
2014,06,26,00,53,13.90
2014,06,26,00,54,13.90
2014,06,26,00,55,14.00
2014,06,26,00,56,14.00
2014,06,26,00,57,14.00
2014,06,26,00,58,14.10
2014,06,26,00,59,14.10
2014,06,26,01,00,14.20
2014,06,26,01,01,14.20
2014,06,26,01,02,14.20
2014,06,26,01,03,14.30
2014,06,26,01,04,14.30
2014,06,26,01,05,14.30
2014,06,26,01,06,14.30
2014,06,26,01,07,14.30
2014,06,26,01,08,14.30
2014,06,26,01,09,14.20
2014,06,26,01,10,14.20
2014,06,26,01,11,14.10
2014,06,26,01,12,14.00
2014,06,26,01,13,14.00
2014,06,26,01,14,13.90
2014,06,26,01,15,13.90
2014,06,26,01,16,13.80
2014,06,26,01,17,13.80
2014,06,26,01,18,13.70
2014,06,26,01,19,13.70
2014,06,26,01,20,13.60
2014,06,26,01,21,13.60
2014,06,26,01,22,13.50
2014,06,26,01,23,13.50
2014,06,26,01,24,13.40
2014,06,26,01,25,13.40
2014,06,26,01,26,13.40
2014,06,26,01,27,13.40
2014,06,26,01,28,13.30
2014,06,26,01,29,13.30
2014,06,26,01,30,13.30
2014,06,26,01,31,13.30
2014,06,26,01,32,13.20
2014,06,26,01,33,13.20
2014,06,26,01,34,13.20
2014,06,26,01,35,13.10
2014,06,26,01,36,13.10
2014,06,26,01,37,13.00
2014,06,26,01,38,13.00
2014,06,26,01,39,12.90
2014,06,26,01,40,12.90
2014,06,26,01,41,12.90
2014,06,26,01,42,12.80
2014,06,26,01,43,12.80
2014,06,26,01,44,12.70
2014,06,26,01,45,12.70
2014,06,26,01,46,12.70
2014,06,26,01,47,12.60
2014,06,26,01,48,12.60
2014,06,26,01,49,12.50
2014,06,26,01,50,12.50
2014,06,26,01,51,12.40
2014,06,26,01,52,12.40
2014,06,26,01,53,12.40
2014,06,26,01,54,12.40
2014,06,26,01,55,12.30
2014,06,26,01,56,12.30
2014,06,26,01,57,12.30
2014,06,26,01,58,12.30
2014,06,26,01,59,12.20
2014,06,26,02,00,12.20
2014,06,26,02,01,12.20
2014,06,26,02,02,12.20
2014,06,26,02,03,12.10
2014,06,26,02,04,12.10
2014,06,26,02,05,12.10
2014,06,26,02,06,12.10
2014,06,26,02,07,12.10
2014,06,26,02,08,12.00
2014,06,26,02,09,12.00
2014,06,26,02,10,12.00
2014,06,26,02,11,11.90
2014,06,26,02,12,11.90
2014,06,26,02,13,11.90
2014,06,26,02,14,11.90
2014,06,26,02,15,11.90
2014,06,26,02,16,11.80
2014,06,26,02,17,11.80
2014,06,26,02,18,11.80
2014,06,26,02,19,11.80
2014,06,26,02,20,11.80
2014,06,26,02,21,11.80
2014,06,26,02,22,11.70
2014,06,26,02,23,11.70
2014,06,26,02,24,11.70
2014,06,26,02,25,11.70
2014,06,26,02,26,11.70
2014,06,26,02,27,11.70
2014,06,26,02,28,11.70
2014,06,26,02,29,11.70
2014,06,26,02,30,11.70
2014,06,26,02,31,11.60
2014,06,26,02,32,11.60
2014,06,26,02,33,11.70
2014,06,26,02,34,11.70
2014,06,26,02,35,11.70
2014,06,26,02,36,11.80
2014,06,26,02,37,11.90
2014,06,26,02,38,12.00
2014,06,26,02,39,12.10
2014,06,26,02,40,12.30
2014,06,26,02,41,12.40
2014,06,26,02,42,12.60
2014,06,26,02,43,12.70
2014,06,26,02,44,12.80
2014,06,26,02,45,12.90
2014,06,26,02,46,13.00
2014,06,26,02,47,13.10
2014,06,26,02,48,13.10
2014,06,26,02,49,13.20
2014,06,26,02,50,13.30
2014,06,26,02,51,13.40
2014,06,26,02,52,13.40
2014,06,26,02,53,13.50
2014,06,26,02,54,13.60
2014,06,26,02,55,13.60
2014,06,26,02,56,13.70
2014,06,26,02,57,13.70
2014,06,26,02,58,13.80
2014,06,26,02,59,13.80
2014,06,26,03,00,13.80
2014,06,26,03,01,13.80
2014,06,26,03,02,13.80
2014,06,26,03,03,13.70
2014,06,26,03,04,13.70
2014,06,26,03,05,13.70
2014,06,26,03,06,13.70
2014,06,26,03,07,13.70
2014,06,26,03,08,13.70
2014,06,26,03,09,13.70
2014,06,26,03,10,13.70
2014,06,26,03,11,13.70
2014,06,26,03,12,13.70
2014,06,26,03,13,13.70
2014,06,26,03,14,13.70
2014,06,26,03,15,13.70
2014,06,26,03,16,13.70
2014,06,26,03,17,13.70
2014,06,26,03,18,13.70
2014,06,26,03,19,13.60
2014,06,26,03,20,13.50
2014,06,26,03,21,13.40
2014,06,26,03,22,13.40
2014,06,26,03,23,13.30
2014,06,26,03,24,13.30
2014,06,26,03,25,13.20
2014,06,26,03,26,13.20
2014,06,26,03,27,13.10
2014,06,26,03,28,13.10
2014,06,26,03,29,13.00
2014,06,26,03,30,12.90
2014,06,26,03,31,12.90
2014,06,26,03,32,12.80
2014,06,26,03,33,12.80
2014,06,26,03,34,12.70
2014,06,26,03,35,12.60
2014,06,26,03,36,12.50
2014,06,26,03,37,12.50
2014,06,26,03,38,12.40
2014,06,26,03,39,12.30
2014,06,26,03,40,12.20
2014,06,26,03,41,12.20
2014,06,26,03,42,12.10
2014,06,26,03,43,12.10
2014,06,26,03,44,12.00
2014,06,26,03,45,12.00
2014,06,26,03,46,11.90
2014,06,26,03,47,11.90
2014,06,26,03,48,11.80
2014,06,26,03,49,11.80
2014,06,26,03,50,11.80
2014,06,26,03,51,11.70
2014,06,26,03,52,11.60
2014,06,26,03,53,11.60
2014,06,26,03,54,11.50
2014,06,26,03,55,11.50
2014,06,26,03,56,11.40
2014,06,26,03,57,11.40
2014,06,26,03,58,11.30
2014,06,26,03,59,11.30
2014,06,26,04,00,11.30
2014,06,26,04,01,11.20
2014,06,26,04,02,11.20
2014,06,26,04,03,11.20
2014,06,26,04,04,11.10
2014,06,26,04,05,11.10
2014,06,26,04,06,11.10
2014,06,26,04,07,11.10
2014,06,26,04,08,11.00
2014,06,26,04,09,11.00
2014,06,26,04,10,11.00
2014,06,26,04,11,10.90
2014,06,26,04,12,10.90
2014,06,26,04,13,10.90
2014,06,26,04,14,10.90
2014,06,26,04,15,10.90
2014,06,26,04,16,10.80
2014,06,26,04,17,10.80
2014,06,26,04,18,10.80
2014,06,26,04,19,10.80
2014,06,26,04,20,10.70
2014,06,26,04,21,10.70
2014,06,26,04,22,10.60
2014,06,26,04,23,10.60
2014,06,26,04,24,10.60
2014,06,26,04,25,10.50
2014,06,26,04,26,10.50
2014,06,26,04,27,10.40
2014,06,26,04,28,10.40
2014,06,26,04,29,10.40
2014,06,26,04,30,10.40
2014,06,26,04,31,10.40
2014,06,26,04,32,10.50
2014,06,26,04,33,10.60
2014,06,26,04,34,10.70
2014,06,26,04,35,10.80
2014,06,26,04,36,11.00
2014,06,26,04,37,11.00
2014,06,26,04,38,11.10
2014,06,26,04,39,11.20
2014,06,26,04,40,11.20
2014,06,26,04,41,11.20
2014,06,26,04,42,11.10
2014,06,26,04,43,11.10
2014,06,26,04,44,11.10
2014,06,26,04,45,11.00
2014,06,26,04,46,11.00
2014,06,26,04,47,11.00
2014,06,26,04,48,10.90
2014,06,26,04,49,10.90
2014,06,26,04,50,10.90
2014,06,26,04,51,10.90
2014,06,26,04,52,10.80
2014,06,26,04,53,10.80
2014,06,26,04,54,10.80
2014,06,26,04,55,10.80
2014,06,26,04,56,10.70
2014,06,26,04,57,10.70
2014,06,26,04,58,10.70
2014,06,26,04,59,10.60
2014,06,26,05,00,10.60
2014,06,26,05,01,10.60
2014,06,26,05,02,10.60
2014,06,26,05,03,10.60
2014,06,26,05,04,10.60
2014,06,26,05,05,10.60
2014,06,26,05,06,10.60
2014,06,26,05,07,10.60
2014,06,26,05,08,10.60
2014,06,26,05,09,10.60
2014,06,26,05,10,10.60
2014,06,26,05,11,10.60
2014,06,26,05,12,10.60
2014,06,26,05,13,10.50
2014,06,26,05,14,10.50
2014,06,26,05,15,10.50
2014,06,26,05,16,10.40
2014,06,26,05,17,10.40
2014,06,26,05,18,10.40
2014,06,26,05,19,10.40
2014,06,26,05,20,10.40
2014,06,26,05,21,10.40
2014,06,26,05,22,10.40
2014,06,26,05,23,10.30
2014,06,26,05,24,10.30
2014,06,26,05,25,10.30
2014,06,26,05,26,10.30
2014,06,26,05,27,10.20
2014,06,26,05,28,10.20
2014,06,26,05,29,10.20
2014,06,26,05,30,10.10
2014,06,26,05,31,10.10
2014,06,26,05,32,10.10
2014,06,26,05,33,10.00
2014,06,26,05,34,10.00
2014,06,26,05,35,9.90
2014,06,26,05,36,9.90
2014,06,26,05,37,9.90
2014,06,26,05,38,9.90
2014,06,26,05,39,9.80
2014,06,26,05,40,9.80
2014,06,26,05,41,9.80
2014,06,26,05,42,9.90
2014,06,26,05,43,9.90
2014,06,26,05,44,9.90
2014,06,26,05,45,9.90
2014,06,26,05,46,9.90
2014,06,26,05,47,10.00
2014,06,26,05,48,10.00
2014,06,26,05,49,10.00
2014,06,26,05,50,10.10
2014,06,26,05,51,10.10
2014,06,26,05,52,10.20
2014,06,26,05,53,10.20
2014,06,26,05,54,10.20
2014,06,26,05,55,10.20
2014,06,26,05,56,10.20
2014,06,26,05,57,10.20
2014,06,26,05,58,10.20
2014,06,26,05,59,10.20
2014,06,26,06,00,10.20
2014,06,26,06,01,10.20
2014,06,26,06,02,10.20
2014,06,26,06,03,10.20
2014,06,26,06,04,10.20
2014,06,26,06,05,10.20
2014,06,26,06,06,10.20
2014,06,26,06,07,10.20
2014,06,26,06,08,10.20
2014,06,26,06,09,10.30
2014,06,26,06,10,10.30
2014,06,26,06,11,10.30
2014,06,26,06,12,10.30
2014,06,26,06,13,10.30
2014,06,26,06,14,10.30
2014,06,26,06,15,10.30
2014,06,26,06,16,10.30
2014,06,26,06,17,10.30
2014,06,26,06,18,10.30
2014,06,26,06,19,10.30
2014,06,26,06,20,10.30
2014,06,26,06,21,10.30
2014,06,26,06,22,10.40
2014,06,26,06,23,10.40
2014,06,26,06,24,10.40
2014,06,26,06,25,10.40
2014,06,26,06,26,10.40
2014,06,26,06,27,10.40
2014,06,26,06,28,10.40
2014,06,26,06,29,10.40
2014,06,26,06,30,10.40
2014,06,26,06,31,10.50
2014,06,26,06,32,10.50
2014,06,26,06,33,10.50
2014,06,26,06,34,10.60
2014,06,26,06,35,10.60
2014,06,26,06,36,10.70
2014,06,26,06,37,10.80
2014,06,26,06,38,10.80
2014,06,26,06,39,10.90
2014,06,26,06,40,11.00
2014,06,26,06,41,11.10
2014,06,26,06,42,11.20
2014,06,26,06,43,11.20
2014,06,26,06,44,11.30
2014,06,26,06,45,11.30
2014,06,26,06,46,11.30
2014,06,26,06,47,11.40
2014,06,26,06,48,11.40
2014,06,26,06,49,11.50
2014,06,26,06,50,11.50
2014,06,26,06,51,11.60
2014,06,26,06,52,11.70
2014,06,26,06,53,11.70
2014,06,26,06,54,11.80
2014,06,26,06,55,11.90
2014,06,26,06,56,12.00
2014,06,26,06,57,12.10
2014,06,26,06,58,12.30
2014,06,26,06,59,12.50
2014,06,26,07,00,12.60
2014,06,26,07,01,12.70
2014,06,26,07,02,12.80
2014,06,26,07,03,12.90
2014,06,26,07,04,13.00
2014,06,26,07,05,13.10
2014,06,26,07,06,13.10
2014,06,26,07,07,13.20
2014,06,26,07,08,13.30
2014,06,26,07,09,13.30
2014,06,26,07,10,13.40
2014,06,26,07,11,13.40
2014,06,26,07,12,13.50
2014,06,26,07,13,13.50
2014,06,26,07,14,13.60
2014,06,26,07,15,13.70
2014,06,26,07,16,13.70
2014,06,26,07,17,13.80
2014,06,26,07,18,13.80
2014,06,26,07,19,13.90
2014,06,26,07,20,13.90
2014,06,26,07,21,14.00
2014,06,26,07,22,14.00
2014,06,26,07,23,14.10
2014,06,26,07,24,14.10
2014,06,26,07,25,14.10
2014,06,26,07,26,14.20
2014,06,26,07,27,14.20
2014,06,26,07,28,14.20
2014,06,26,07,29,14.30
2014,06,26,07,30,14.30
2014,06,26,07,31,14.30
2014,06,26,07,32,14.30
2014,06,26,07,33,14.40
2014,06,26,07,34,14.40
2014,06,26,07,35,14.50
2014,06,26,07,36,14.50
2014,06,26,07,37,14.60
2014,06,26,07,38,14.60
2014,06,26,07,39,14.70
2014,06,26,07,40,14.70
2014,06,26,07,41,14.70
2014,06,26,07,42,14.70
2014,06,26,07,43,14.70
2014,06,26,07,44,14.80
2014,06,26,07,45,14.90
2014,06,26,07,46,14.90
2014,06,26,07,47,15.00
2014,06,26,07,48,15.00
2014,06,26,07,49,15.10
2014,06,26,07,50,15.10
2014,06,26,07,51,15.20
2014,06,26,07,52,15.20
2014,06,26,07,53,15.20
2014,06,26,07,54,15.20
2014,06,26,07,55,15.20
2014,06,26,07,56,15.30
2014,06,26,07,57,15.30
2014,06,26,07,58,15.30
2014,06,26,07,59,15.30
2014,06,26,08,00,15.40
2014,06,26,08,01,15.40
2014,06,26,08,02,15.30
2014,06,26,08,03,15.30
2014,06,26,08,04,15.30
2014,06,26,08,05,15.30
2014,06,26,08,06,15.40
2014,06,26,08,07,15.40
2014,06,26,08,08,15.50
2014,06,26,08,09,15.50
2014,06,26,08,10,15.60
2014,06,26,08,11,15.60
2014,06,26,08,12,15.70
2014,06,26,08,13,15.70
2014,06,26,08,14,15.80
2014,06,26,08,15,15.80
2014,06,26,08,16,15.80
2014,06,26,08,17,15.90
2014,06,26,08,18,15.90
2014,06,26,08,19,15.90
2014,06,26,08,20,15.90
2014,06,26,08,21,15.90
2014,06,26,08,22,15.90
2014,06,26,08,23,15.90
2014,06,26,08,24,16.00
2014,06,26,08,25,16.00
2014,06,26,08,26,16.10
2014,06,26,08,27,16.10
2014,06,26,08,28,16.10
2014,06,26,08,29,16.20
2014,06,26,08,30,16.20
2014,06,26,08,31,16.20
2014,06,26,08,32,16.20
2014,06,26,08,33,16.20
2014,06,26,08,34,16.20
2014,06,26,08,35,16.20
2014,06,26,08,36,16.20
2014,06,26,08,37,16.20
2014,06,26,08,38,16.30
2014,06,26,08,39,16.30
2014,06,26,08,40,16.30
2014,06,26,08,41,16.30
2014,06,26,08,42,16.30
2014,06,26,08,43,16.30
2014,06,26,08,44,16.30
2014,06,26,08,45,16.30
2014,06,26,08,46,16.30
2014,06,26,08,47,16.30
2014,06,26,08,48,16.30
2014,06,26,08,49,16.40
2014,06,26,08,50,16.40
2014,06,26,08,51,16.50
2014,06,26,08,52,16.50
2014,06,26,08,53,16.50
2014,06,26,08,54,16.50
2014,06,26,08,55,16.60
2014,06,26,08,56,16.70
2014,06,26,08,57,16.70
2014,06,26,08,58,16.80
2014,06,26,08,59,16.90
2014,06,26,09,00,16.90
2014,06,26,09,01,17.00
2014,06,26,09,02,17.10
2014,06,26,09,03,17.20
2014,06,26,09,04,17.20
2014,06,26,09,05,17.30
2014,06,26,09,06,17.40
2014,06,26,09,07,17.50
2014,06,26,09,08,17.50
2014,06,26,09,09,17.60
2014,06,26,09,10,17.60
2014,06,26,09,11,17.70
2014,06,26,09,12,17.80
2014,06,26,09,13,17.80
2014,06,26,09,14,17.90
2014,06,26,09,15,17.90
2014,06,26,09,16,18.00
2014,06,26,09,17,18.10
2014,06,26,09,18,18.10
2014,06,26,09,19,18.10
2014,06,26,09,20,18.10
2014,06,26,09,21,18.20
2014,06,26,09,22,18.20
2014,06,26,09,23,18.20
2014,06,26,09,24,18.20
2014,06,26,09,25,18.20
2014,06,26,09,26,18.20
2014,06,26,09,27,18.20
2014,06,26,09,28,18.30
2014,06,26,09,29,18.40
2014,06,26,09,30,18.40
2014,06,26,09,31,18.50
2014,06,26,09,32,18.60
2014,06,26,09,33,18.60
2014,06,26,09,34,18.60
2014,06,26,09,35,18.70
2014,06,26,09,36,18.70
2014,06,26,09,37,18.80
2014,06,26,09,38,18.80
2014,06,26,09,39,18.90
2014,06,26,09,40,18.90
2014,06,26,09,41,19.00
2014,06,26,09,42,19.10
2014,06,26,09,43,19.10
2014,06,26,09,44,19.20
2014,06,26,09,45,19.20
2014,06,26,09,46,19.20
2014,06,26,09,47,19.20
2014,06,26,09,48,19.10
2014,06,26,09,49,19.10
2014,06,26,09,50,19.10
2014,06,26,09,51,19.10
2014,06,26,09,52,19.10
2014,06,26,09,53,19.20
2014,06,26,09,54,19.20
2014,06,26,09,55,19.30
2014,06,26,09,56,19.40
2014,06,26,09,57,19.40
2014,06,26,09,58,19.50
2014,06,26,09,59,19.40
2014,06,26,10,00,19.40
2014,06,26,10,01,19.40
2014,06,26,10,02,19.40
2014,06,26,10,03,19.40
2014,06,26,10,04,19.40
2014,06,26,10,05,19.50
2014,06,26,10,06,19.60
2014,06,26,10,07,19.70
2014,06,26,10,08,19.80
2014,06,26,10,09,19.90
2014,06,26,10,10,19.90
2014,06,26,10,11,19.90
2014,06,26,10,12,19.90
2014,06,26,10,13,19.90
2014,06,26,10,14,19.90
2014,06,26,10,15,19.90
2014,06,26,10,16,19.90
2014,06,26,10,17,19.90
2014,06,26,10,18,20.00
2014,06,26,10,19,20.00
2014,06,26,10,20,20.10
2014,06,26,10,21,20.20
2014,06,26,10,22,20.30
2014,06,26,10,23,20.30
2014,06,26,10,24,20.30
2014,06,26,10,25,20.30
2014,06,26,10,26,20.30
2014,06,26,10,27,20.20
2014,06,26,10,28,20.20
2014,06,26,10,29,20.30
2014,06,26,10,30,20.30
2014,06,26,10,31,20.30
2014,06,26,10,32,20.30
2014,06,26,10,33,20.20
2014,06,26,10,34,20.20
2014,06,26,10,35,20.20
2014,06,26,10,36,20.20
2014,06,26,10,37,20.20
2014,06,26,10,38,20.30
2014,06,26,10,39,20.40
2014,06,26,10,40,20.40
2014,06,26,10,41,20.50
2014,06,26,10,42,20.50
2014,06,26,10,43,20.50
2014,06,26,10,44,20.50
2014,06,26,10,45,20.50
2014,06,26,10,46,20.60
2014,06,26,10,47,20.70
2014,06,26,10,48,20.70
2014,06,26,10,49,20.70
2014,06,26,10,50,20.70
2014,06,26,10,51,20.70
2014,06,26,10,52,20.70
2014,06,26,10,53,20.80
2014,06,26,10,54,20.80
2014,06,26,10,55,20.80
2014,06,26,10,56,20.80
2014,06,26,10,57,20.90
2014,06,26,10,58,20.90
2014,06,26,10,59,20.90
2014,06,26,11,00,21.00
2014,06,26,11,01,21.00
2014,06,26,11,02,21.10
2014,06,26,11,03,21.10
2014,06,26,11,04,21.10
2014,06,26,11,05,21.00
2014,06,26,11,06,20.90
2014,06,26,11,07,20.80
2014,06,26,11,08,20.80
2014,06,26,11,09,20.80
2014,06,26,11,10,20.80
2014,06,26,11,11,20.80
2014,06,26,11,12,20.80
2014,06,26,11,13,20.70
2014,06,26,11,14,20.70
2014,06,26,11,15,20.60
2014,06,26,11,16,20.60
2014,06,26,11,17,20.60
2014,06,26,11,18,20.60
2014,06,26,11,19,20.70
2014,06,26,11,20,20.80
2014,06,26,11,21,20.80
2014,06,26,11,22,20.80
2014,06,26,11,23,20.80
2014,06,26,11,24,20.80
2014,06,26,11,25,20.80
2014,06,26,11,26,20.90
2014,06,26,11,27,20.90
2014,06,26,11,28,21.00
2014,06,26,11,29,21.00
2014,06,26,11,30,20.90
2014,06,26,11,31,20.90
2014,06,26,11,32,20.80
2014,06,26,11,33,20.90
2014,06,26,11,34,21.00
2014,06,26,11,35,21.00
2014,06,26,11,36,21.00
2014,06,26,11,37,21.00
2014,06,26,11,38,20.90
2014,06,26,11,39,21.00
2014,06,26,11,40,21.10
2014,06,26,11,41,21.20
2014,06,26,11,42,21.20
2014,06,26,11,43,21.20
2014,06,26,11,44,21.20
2014,06,26,11,45,21.10
2014,06,26,11,46,21.10
2014,06,26,11,47,21.00
2014,06,26,11,48,21.00
2014,06,26,11,49,20.90
2014,06,26,11,50,20.90
2014,06,26,11,51,20.80
2014,06,26,11,52,20.80
2014,06,26,11,53,20.80
2014,06,26,11,54,20.80
2014,06,26,11,55,20.80
2014,06,26,11,56,20.80
2014,06,26,11,57,20.80
2014,06,26,11,58,20.90
2014,06,26,11,59,20.90
2014,06,26,12,00,20.90
2014,06,26,12,01,20.90
2014,06,26,12,02,20.80
2014,06,26,12,03,20.70
2014,06,26,12,04,20.80
2014,06,26,12,05,20.90
2014,06,26,12,06,21.00
2014,06,26,12,07,21.10
2014,06,26,12,08,21.20
2014,06,26,12,09,21.30
2014,06,26,12,10,21.30
2014,06,26,12,11,21.30
2014,06,26,12,12,21.30
2014,06,26,12,13,21.20
2014,06,26,12,14,21.20
2014,06,26,12,15,21.20
2014,06,26,12,16,21.20
2014,06,26,12,17,21.30
2014,06,26,12,18,21.30
2014,06,26,12,19,21.30
2014,06,26,12,20,21.30
2014,06,26,12,21,21.30
2014,06,26,12,22,21.40
2014,06,26,12,23,21.40
2014,06,26,12,24,21.40
2014,06,26,12,25,21.40
2014,06,26,12,26,21.50
2014,06,26,12,27,21.60
2014,06,26,12,28,21.60
2014,06,26,12,29,21.60
2014,06,26,12,30,21.60
2014,06,26,12,31,21.60
2014,06,26,12,32,21.60
2014,06,26,12,33,21.60
2014,06,26,12,34,21.60
2014,06,26,12,35,21.60
2014,06,26,12,36,21.60
2014,06,26,12,37,21.50
2014,06,26,12,38,21.50
2014,06,26,12,39,21.40
2014,06,26,12,40,21.30
2014,06,26,12,41,21.30
2014,06,26,12,42,21.20
2014,06,26,12,43,21.10
2014,06,26,12,44,21.10
2014,06,26,12,45,21.10
2014,06,26,12,46,21.10
2014,06,26,12,47,21.10
2014,06,26,12,48,21.10
2014,06,26,12,49,21.00
2014,06,26,12,50,20.90
2014,06,26,12,51,20.90
2014,06,26,12,52,20.90
2014,06,26,12,53,20.90
2014,06,26,12,54,21.00
2014,06,26,12,55,21.00
2014,06,26,12,56,21.20
2014,06,26,12,57,21.20
2014,06,26,12,58,21.20
2014,06,26,12,59,21.30
2014,06,26,13,00,21.30
2014,06,26,13,01,21.30
2014,06,26,13,02,21.20
2014,06,26,13,03,21.20
2014,06,26,13,04,21.10
2014,06,26,13,05,21.00
2014,06,26,13,06,20.90
2014,06,26,13,07,20.90
2014,06,26,13,08,20.80
2014,06,26,13,09,20.80
2014,06,26,13,10,20.70
2014,06,26,13,11,20.70
2014,06,26,13,12,20.80
2014,06,26,13,13,20.80
2014,06,26,13,14,20.90
2014,06,26,13,15,21.00
2014,06,26,13,16,21.00
2014,06,26,13,17,21.00
2014,06,26,13,18,21.00
2014,06,26,13,19,21.00
2014,06,26,13,20,21.00
2014,06,26,13,21,21.00
2014,06,26,13,22,20.90
2014,06,26,13,23,20.90
2014,06,26,13,24,20.80
2014,06,26,13,25,20.80
2014,06,26,13,26,20.90
2014,06,26,13,27,20.90
2014,06,26,13,28,21.00
2014,06,26,13,29,21.10
2014,06,26,13,30,21.20
2014,06,26,13,31,21.30
2014,06,26,13,32,21.20
2014,06,26,13,33,21.10
2014,06,26,13,34,21.00
2014,06,26,13,35,20.90
2014,06,26,13,36,20.70
2014,06,26,13,37,20.60
2014,06,26,13,38,20.60
2014,06,26,13,39,20.50
2014,06,26,13,40,20.50
2014,06,26,13,41,20.50
2014,06,26,13,42,20.60
2014,06,26,13,43,20.60
2014,06,26,13,44,20.60
2014,06,26,13,45,20.70
2014,06,26,13,46,20.90
2014,06,26,13,47,20.90
2014,06,26,13,48,21.00
2014,06,26,13,49,21.10
2014,06,26,13,50,21.20
2014,06,26,13,51,21.10
2014,06,26,13,52,21.10
2014,06,26,13,53,21.10
2014,06,26,13,54,21.10
2014,06,26,13,55,21.10
2014,06,26,13,56,21.10
2014,06,26,13,57,21.10
2014,06,26,13,58,21.10
2014,06,26,13,59,21.20
2014,06,26,14,00,21.20
2014,06,26,14,01,21.30
2014,06,26,14,02,21.30
2014,06,26,14,03,21.20
2014,06,26,14,04,21.20
2014,06,26,14,05,21.20
2014,06,26,14,06,21.20
2014,06,26,14,07,21.20
2014,06,26,14,08,21.20
2014,06,26,14,09,21.20
2014,06,26,14,10,21.10
2014,06,26,14,11,21.00
2014,06,26,14,12,21.00
2014,06,26,14,13,21.00
2014,06,26,14,14,21.00
2014,06,26,14,15,21.00
2014,06,26,14,16,21.10
2014,06,26,14,17,21.20
2014,06,26,14,18,21.30
2014,06,26,14,19,21.40
2014,06,26,14,20,21.40
2014,06,26,14,21,21.40
2014,06,26,14,22,21.40
2014,06,26,14,23,21.40
2014,06,26,14,24,21.30
2014,06,26,14,25,21.10
2014,06,26,14,26,20.90
2014,06,26,14,27,20.70
2014,06,26,14,28,20.60
2014,06,26,14,29,20.50
2014,06,26,14,30,20.40
2014,06,26,14,31,20.30
2014,06,26,14,32,20.30
2014,06,26,14,33,20.30
2014,06,26,14,34,20.30
2014,06,26,14,35,20.40
2014,06,26,14,36,20.40
2014,06,26,14,37,20.40
2014,06,26,14,38,20.40
2014,06,26,14,39,20.50
2014,06,26,14,40,20.60
2014,06,26,14,41,20.60
2014,06,26,14,42,20.70
2014,06,26,14,43,20.80
2014,06,26,14,44,20.80
2014,06,26,14,45,20.80
2014,06,26,14,46,20.80
2014,06,26,14,47,20.70
2014,06,26,14,48,20.70
2014,06,26,14,49,20.60
2014,06,26,14,50,20.50
2014,06,26,14,51,20.40
2014,06,26,14,52,20.40
2014,06,26,14,53,20.40
2014,06,26,14,54,20.40
2014,06,26,14,55,20.40
2014,06,26,14,56,20.40
2014,06,26,14,57,20.50
2014,06,26,14,58,20.60
2014,06,26,14,59,20.60
2014,06,26,15,00,20.70
2014,06,26,15,01,20.70
2014,06,26,15,02,20.70
2014,06,26,15,03,20.80
2014,06,26,15,04,20.70
2014,06,26,15,05,20.70
2014,06,26,15,06,20.60
2014,06,26,15,07,20.60
2014,06,26,15,08,20.60
2014,06,26,15,09,20.60
2014,06,26,15,10,20.50
2014,06,26,15,11,20.50
2014,06,26,15,12,20.40
2014,06,26,15,13,20.40
2014,06,26,15,14,20.20
2014,06,26,15,15,20.10
2014,06,26,15,16,20.00
2014,06,26,15,17,20.00
2014,06,26,15,18,19.90
2014,06,26,15,19,19.80
2014,06,26,15,20,19.80
2014,06,26,15,21,19.80
2014,06,26,15,22,19.90
2014,06,26,15,23,19.90
2014,06,26,15,24,19.90
2014,06,26,15,25,20.00
2014,06,26,15,26,20.00
2014,06,26,15,27,20.10
2014,06,26,15,28,20.10
2014,06,26,15,29,20.10
2014,06,26,15,30,20.20
2014,06,26,15,31,20.20
2014,06,26,15,32,20.30
2014,06,26,15,33,20.40
2014,06,26,15,34,20.50
2014,06,26,15,35,20.60
2014,06,26,15,36,20.60
2014,06,26,15,37,20.60
2014,06,26,15,38,20.60
2014,06,26,15,39,20.60
2014,06,26,15,40,20.70
2014,06,26,15,41,20.70
2014,06,26,15,42,20.80
2014,06,26,15,43,20.80
2014,06,26,15,44,20.80
2014,06,26,15,45,20.80
2014,06,26,15,46,20.80
2014,06,26,15,47,20.80
2014,06,26,15,48,20.70
2014,06,26,15,49,20.70
2014,06,26,15,50,20.50
2014,06,26,15,51,20.40
2014,06,26,15,52,20.30
2014,06,26,15,53,20.20
2014,06,26,15,54,20.20
2014,06,26,15,55,20.20
2014,06,26,15,56,20.20
2014,06,26,15,57,20.20
2014,06,26,15,58,20.30
2014,06,26,15,59,20.30
2014,06,26,16,00,20.30
2014,06,26,16,01,20.30
2014,06,26,16,02,20.30
2014,06,26,16,03,20.30
2014,06,26,16,04,20.30
2014,06,26,16,05,20.40
2014,06,26,16,06,20.40
2014,06,26,16,07,20.40
2014,06,26,16,08,20.40
2014,06,26,16,09,20.50
2014,06,26,16,10,20.50
2014,06,26,16,11,20.50
2014,06,26,16,12,20.50
2014,06,26,16,13,20.40
2014,06,26,16,14,20.30
2014,06,26,16,15,20.20
2014,06,26,16,16,20.10
2014,06,26,16,17,20.00
2014,06,26,16,18,20.00
2014,06,26,16,19,19.90
2014,06,26,16,20,19.90
2014,06,26,16,21,19.90
2014,06,26,16,22,19.90
2014,06,26,16,23,19.90
2014,06,26,16,24,19.80
2014,06,26,16,25,19.80
2014,06,26,16,26,19.80
2014,06,26,16,27,19.80
2014,06,26,16,28,19.80
2014,06,26,16,29,19.80
2014,06,26,16,30,19.80
2014,06,26,16,31,19.70
2014,06,26,16,32,19.70
2014,06,26,16,33,19.70
2014,06,26,16,34,19.70
2014,06,26,16,35,19.70
2014,06,26,16,36,19.70
2014,06,26,16,37,19.80
2014,06,26,16,38,19.80
2014,06,26,16,39,19.70
2014,06,26,16,40,19.70
2014,06,26,16,41,19.70
2014,06,26,16,42,19.70
2014,06,26,16,43,19.70
2014,06,26,16,44,19.70
2014,06,26,16,45,19.70
2014,06,26,16,46,19.80
2014,06,26,16,47,19.80
2014,06,26,16,48,19.80
2014,06,26,16,49,19.80
2014,06,26,16,50,19.80
2014,06,26,16,51,19.80
2014,06,26,16,52,19.80
2014,06,26,16,53,19.90
2014,06,26,16,54,20.00
2014,06,26,16,55,20.10
2014,06,26,16,56,20.10
2014,06,26,16,57,20.10
2014,06,26,16,58,20.10
2014,06,26,16,59,20.20
2014,06,26,17,00,20.30
2014,06,26,17,01,20.30
2014,06,26,17,02,20.40
2014,06,26,17,03,20.50
2014,06,26,17,04,20.60
2014,06,26,17,05,20.60
2014,06,26,17,06,20.60
2014,06,26,17,07,20.60
2014,06,26,17,08,20.60
2014,06,26,17,09,20.60
2014,06,26,17,10,20.60
2014,06,26,17,11,20.60
2014,06,26,17,12,20.50
2014,06,26,17,13,20.50
2014,06,26,17,14,20.40
2014,06,26,17,15,20.40
2014,06,26,17,16,20.40
2014,06,26,17,17,20.40
2014,06,26,17,18,20.40
2014,06,26,17,19,20.40